{"data":{"norad_id":67909,"epoch":"2026-09-19T06:09:00.273024Z","epoch_age_seconds":170666,"freshness":"FRESH","line1":"1 67909U 26036F   26262.25625316  .00009685  00000+0  36091-3 0  9995","line2":"2 67909  42.9997 232.2761 0001417 266.9777  93.0912 15.27589710 33323","mean_motion":15.2758971,"eccentricity":0.0001417,"inclination_deg":42.9997,"raan_deg":232.2761,"arg_perigee_deg":266.9777,"mean_anomaly_deg":93.0912,"bstar":0.00036091,"rev_number":3332,"period_min":94.266149514715,"perigee_km":482.04779501064,"apogee_km":483.99224691038,"semimajor_km":6861.1570209605,"source":"CELESTRAK","updated_at":"2026-09-20T09:00:43.701923Z"}}